Location: Limerick
(52.6650°N, 8.6230°W)
Time: 19:17:39
(UTC+01:00)

ISS - Pass Details

Date: 27 May 2017
Orbit: 402 x 408 km, 51.6° (Epoch: 29 May)

Event Time Altitude Azimuth Distance (km) Brightness Sun altitude
Rises 23:01:22 0° 245° (WSW) 2,330 0.2 -9.0°
Reaches altitude 10° 23:03:28 10° 241° (WSW) 1,470 -0.9 -9.2°
Maximum altitude 23:06:41 53° 163° (SSE) 511 -3.7 -9.5°
Drops below altitude 10° 23:09:54 10° 86° (E) 1,471 -1.3 -9.7°
Sets 23:12:01 0° 82° (E) 2,332 -0.2 -9.9°
